Simultaneous Nadir Overpasses (SNOs) Predictions

Prediction of SNOs between FY3D and AQUA Satellite Orbit:

Table of predicted SNOs for the next 14.0 days since TLE Epoch: 8/17/2024
Index Date (FY3D) Time (FY3D) Lat,Lon (FY3D) SZA (FY3D ) Date (AQUA) Time (AQUA) Lat,Lon (AQUA) SZA (AQUA ) Distance(km) Time Diff (sec)
1 08/18/2024 05:10:37 79.59, 83.34 67.27 08/18/2024 05:11:30 79.58, 83.47 67.23 2.76 53
2 08/18/2024 06:01:14 -79.36,-107.31 113.07 08/18/2024 06:00:45 -79.36,-107.28 113.07 0.78 29
3 08/20/2024 17:14:05 -79.48, 83.58 112.11 08/20/2024 17:14:23 -79.48, 83.55 112.11 0.67 18
4 08/20/2024 18:04:45 79.28,-107.45 67.62 08/20/2024 18:03:39 79.27,-107.32 67.62 3.07 66
5 08/23/2024 04:26:54 -79.54, -85.10 111.20 08/23/2024 04:27:57 -79.54, -85.23 111.21 2.77 63
6 08/23/2024 05:17:35 79.38, 83.59 68.58 08/23/2024 05:17:14 79.37, 83.63 68.58 1.01 21
7 08/25/2024 16:30:24 79.46, -85.22 69.53 08/25/2024 16:30:46 79.46, -85.31 69.53 1.77 22
8 08/25/2024 17:21:03 -79.28, 83.59 110.72 08/25/2024 17:20:02 -79.27, 83.65 110.72 1.37 61
9 08/28/2024 03:43:15 79.61, 105.28 70.60 08/28/2024 03:44:17 79.60, 105.34 70.58 1.30 62
10 08/28/2024 04:33:51 -79.33, -85.02 109.79 08/28/2024 04:33:31 -79.34, -85.14 109.77 2.68 20
11 08/30/2024 15:46:41 -79.47, 105.70 108.73 08/30/2024 15:46:59 -79.47, 105.65 108.73 1.05 18



Historial Predications of SNOs between FY3D and AQUA
